TimeAWST,TemperatureF,Dew PointF,Humidity,Sea Level PressureIn,VisibilityMPH,Wind Direction,Wind SpeedMPH,Gust SpeedMPH,PrecipitationIn,Events,Conditions,WindDirDegrees,DateUTC
12:00 AM,91,48,14,29.77,,SSE,6.9,,,,,160,2013-02-05 16:00:00
12:00 AM,91.4,48.2,23,29.83,-9999.0,SSE,6.9,-,N/A,,Unknown,160,2013-02-05 16:00:00
1:00 AM,86.0,50.0,29,29.80,-9999.0,SSE,4.6,-,N/A,,Unknown,150,2013-02-05 17:00:00
2:00 AM,86,49,18,29.74,,North,3.5,,,,,350,2013-02-05 18:00:00
2:00 AM,86.0,50.0,29,29.80,-9999.0,North,3.5,-,N/A,,Unknown,350,2013-02-05 18:00:00
3:00 AM,86,51,20,29.74,,Calm,Calm,,,,,,2013-02-05 19:00:00
3:00 AM,86.0,50.0,29,29.80,-9999.0,Calm,Calm,-,N/A,,Unknown,0,2013-02-05 19:00:00
4:00 AM,84.2,51.8,33,29.80,-9999.0,NNW,4.6,-,N/A,,Unknown,340,2013-02-05 20:00:00
5:00 AM,82,64,46,29.75,,NW,6.9,,,,,320,2013-02-05 21:00:00
5:00 AM,82.4,64.4,54,29.80,-9999.0,NW,6.9,-,N/A,,Unknown,320,2013-02-05 21:00:00
6:00 AM,81,71,65,29.76,,WNW,5.8,,,,,300,2013-02-05 22:00:00
6:00 AM,80.6,71.6,74,29.83,-9999.0,WNW,5.8,-,N/A,,Unknown,300,2013-02-05 22:00:00
7:00 AM,84.2,73.4,70,29.86,-9999.0,NW,5.8,-,N/A,,Unknown,310,2013-02-05 23:00:00
8:00 AM,87,74,58,29.82,,West,5.8,,,,,270,2013-02-06 00:00:00
8:00 AM,87.8,75.2,66,29.89,-9999.0,West,5.8,-,N/A,,Unknown,270,2013-02-06 00:00:00
9:00 AM,92,71,40,29.81,,WNW,6.9,,,,,290,2013-02-06 01:00:00
9:00 AM,93.2,69.8,46,29.86,-9999.0,WNW,6.9,-,N/A,,Unknown,290,2013-02-06 01:00:00
10:00 AM,98.6,69.8,39,29.86,-9999.0,NW,6.9,-,N/A,,Unknown,320,2013-02-06 02:00:00
11:00 AM,104,59,14,29.78,,NE,4.6,,,,,50,2013-02-06 03:00:00
11:00 AM,104.0,59.0,23,29.83,-9999.0,NE,4.6,-,N/A,,Unknown,50,2013-02-06 03:00:00
12:00 PM,107,49,8,29.75,,NNW,6.9,,,,,340,2013-02-06 04:00:00
12:00 PM,107.6,50.0,15,29.80,-9999.0,NNW,6.9,-,N/A,,Unknown,340,2013-02-06 04:00:00
1:00 PM,105.8,48.2,14,29.77,-9999.0,North,8.1,-,N/A,,Unknown,350,2013-02-06 05:00:00
2:00 PM,108,43,5,29.69,,ENE,12.7,,,,,70,2013-02-06 06:00:00
3:00 PM,109,43,5,29.67,,ENE,10.4,,,,,70,2013-02-06 07:00:00
3:00 PM,109.4,42.8,11,29.71,-9999.0,ENE,10.4,-,N/A,,Unknown,70,2013-02-06 07:00:00
4:00 PM,107.6,42.8,11,29.71,-9999.0,East,11.5,-,N/A,,Unknown,100,2013-02-06 08:00:00
5:00 PM,107,42,5,29.65,,SSE,3.5,,,,,160,2013-02-06 09:00:00
5:00 PM,107.6,41.0,10,29.71,-9999.0,SSE,3.5,-,N/A,,Unknown,160,2013-02-06 09:00:00
6:00 PM,104,42,6,29.66,,South,4.6,,,,,170,2013-02-06 10:00:00
6:00 PM,104.0,41.0,12,29.71,-9999.0,South,4.6,-,N/A,,Unknown,170,2013-02-06 10:00:00
7:00 PM,102.2,41.0,12,29.74,-9999.0,NE,4.6,-,N/A,,Unknown,50,2013-02-06 11:00:00
8:00 PM,100,42,7,29.70,,Calm,Calm,,,,,,2013-02-06 12:00:00
8:00 PM,100.4,42.8,14,29.74,-9999.0,Calm,Calm,-,N/A,,Unknown,0,2013-02-06 12:00:00
9:00 PM,97,48,11,29.71,,NNW,8.1,,,,,330,2013-02-06 13:00:00
9:00 PM,96.8,48.2,19,29.77,-9999.0,NNW,8.1,-,N/A,,Unknown,330,2013-02-06 13:00:00
10:00 PM,95.0,57.2,28,29.77,-9999.0,NW,13.8,-,N/A,,Unknown,310,2013-02-06 14:00:00
11:00 PM,90,54,19,29.71,,NNW,10.4,,,,,330,2013-02-06 15:00:00
11:00 PM,89.6,53.6,29,29.77,-9999.0,NNW,10.4,-,N/A,,Unknown,330,2013-02-06 15:00:00